EW4115 Athens GR current weather conditions

sailwx.info

Wind from 077

Air temperature 30.0° C
Dewpoint 13.7° C

Last reported at 2020-Aug-15 18:00 UTC.
Time now 2020-Aug-15 19:15 UTC

Location: N 38°02' E 023°47'.
View on Google Maps.

See reports from other nearby stations

  
Tides and Currents Weather Stations Pressure Air Temp Water Temp Dewpoint Dewpoint Depression Visibility Wind Speed Wind Dir Waves Ship Positions
date/time (UTC)wind fromknots sea level pressurealtimeterstation pressurevisibilityair tempwater tempwave heightnotes
2020-Aug-15 18:00 077 30.0
2020-Aug-15 17:45 078 30.0
2020-Aug-15 17:30 078 30.6
2020-Aug-15 17:15 078 30.6
2020-Aug-15 17:00 078 30.6
2020-Aug-15 16:45 077 31.1
2020-Aug-15 16:30 071 31.7
2020-Aug-15 16:15 067 31.7
2020-Aug-15 16:00 209 32.2
2020-Aug-15 15:45 076 32.8
2020-Aug-15 15:30 065 32.8
2020-Aug-15 15:15 059 33.3
2020-Aug-15 15:00 071 33.9
2020-Aug-15 14:45 113 34.4
2020-Aug-15 14:30 064 34.4
2020-Aug-15 14:15 197 35.0
2020-Aug-15 14:00 127 35.6
2020-Aug-15 13:45 032 35.6
2020-Aug-15 13:30 123 36.1
2020-Aug-15 13:15 269 36.7
2020-Aug-15 13:02 264 36.1
2020-Aug-15 12:46 033 36.1
2020-Aug-15 12:31 295 35.6
2020-Aug-15 12:17 288 35.6
2020-Aug-15 12:01 340 35.6
2020-Aug-15 11:46 063 36.1
2020-Aug-15 11:33 101 36.1
2020-Aug-15 11:16 290 36.1
2020-Aug-15 11:01 342 35.6
2020-Aug-15 10:45 053 35.0
2020-Aug-15 10:30 237 35.0
2020-Aug-15 10:16 102 34.4
2020-Aug-15 10:00 094 34.4
2020-Aug-15 09:45 069 34.4
2020-Aug-15 09:30 065 33.9
2020-Aug-15 09:15 026 33.3
2020-Aug-15 09:00 360 33.3
2020-Aug-15 08:45 355 32.8
2020-Aug-15 08:16 339 0 gusting 8 32.2
2020-Aug-15 08:01 342 31.7
2020-Aug-15 07:46 331 31.7
2020-Aug-15 07:30 344 31.1
2020-Aug-15 07:16 030 30.6
2020-Aug-15 07:01 321 30.6
2020-Aug-15 06:45 321 30.6
2020-Aug-15 06:30 336 30.6
2020-Aug-15 06:16 066 30.0
2020-Aug-15 06:00 308 30.0
2020-Aug-15 05:45 308 29.4
2020-Aug-15 05:30 308 28.3
2020-Aug-15 05:15 308 26.7
2020-Aug-15 05:02 308 25.6
2020-Aug-15 04:46 308 24.4
2020-Aug-15 04:31 308 23.9
2020-Aug-15 04:17 308 23.3
2020-Aug-15 04:01 308 23.3
2020-Aug-15 03:45 308 23.3
2020-Aug-15 03:31 308 23.9
2020-Aug-15 03:16 308 23.9
2020-Aug-15 03:00 308 24.4
2020-Aug-15 02:45 308 24.4
2020-Aug-15 02:30 308 24.4
2020-Aug-15 02:15 308 24.4
2020-Aug-15 02:01 308 25.0
2020-Aug-15 01:45 307 25.0
2020-Aug-15 01:30 307 25.0
2020-Aug-15 01:15 307 25.0
2020-Aug-15 01:00 307 25.6
2020-Aug-15 00:46 307 25.0
2020-Aug-15 00:31 308 25.0
2020-Aug-15 00:15 305 25.0
2020-Aug-15 00:01 305 25.6
2020-Aug-14 23:45 305 25.6
2020-Aug-14 23:30 306 26.1
2020-Aug-14 23:15 305 26.1
2020-Aug-14 23:00 306 26.1
2020-Aug-14 22:45 308 26.1
2020-Aug-14 22:30 307 26.1
2020-Aug-14 22:15 005 26.7
2020-Aug-14 22:00 010 26.7
2020-Aug-14 21:45 010 26.7
2020-Aug-14 21:30 010 26.7
2020-Aug-14 21:17 064 26.7
2020-Aug-14 21:01 065 27.2
2020-Aug-14 20:46 066 27.2
2020-Aug-14 20:31 066 27.2
2020-Aug-14 20:16 066 27.2
2020-Aug-14 20:01 066 27.2
2020-Aug-14 19:46 065 27.8
2020-Aug-14 19:31 065 27.8
2020-Aug-14 19:17 065 27.8
2020-Aug-14 19:01 022 27.8
2020-Aug-14 18:46 009 27.8
2020-Aug-14 18:31 010 28.3
2020-Aug-14 18:16 080 28.3
2020-Aug-14 18:01 083 28.3
2020-Aug-14 17:46 360 28.9
2020-Aug-14 17:32 051 28.9
2020-Aug-14 17:16 082 29.4
2020-Aug-14 17:01 032 30.0
2020-Aug-14 16:46 094 30.6
2020-Aug-14 16:32 355 31.1
2020-Aug-14 16:17 331 31.1
2020-Aug-14 16:01 019 31.7
2020-Aug-14 15:46 351 31.7
2020-Aug-14 15:31 069 31.7
2020-Aug-14 15:16 337 32.2
2020-Aug-14 15:01 360 32.2
2020-Aug-14 14:46 071 32.2
2020-Aug-14 14:30 342 32.2
2020-Aug-14 14:16 087 0 gusting 9 32.2
2020-Aug-14 14:01 085 0 gusting 7 32.8
2020-Aug-14 13:46 072 0 gusting 10 32.8
2020-Aug-14 13:30 022 32.8
2020-Aug-14 13:16 092 33.3
2020-Aug-14 13:00 086 0 gusting 8 32.8
2020-Aug-14 12:45 336 32.8
2020-Aug-14 12:30 057 0 gusting 12 32.8
2020-Aug-14 12:16 057 32.8
2020-Aug-14 12:01 107 1 gusting 10 32.8
2020-Aug-14 11:45 334 32.8
2020-Aug-14 11:30 337 0 gusting 9 32.8
2020-Aug-14 11:15 330 0 gusting 8 32.8
2020-Aug-14 11:00 013 0 gusting 10 32.8
2020-Aug-14 10:46 016 1 gusting 9 32.8
2020-Aug-14 10:30 311 0 gusting 12 32.2
2020-Aug-14 10:15 314 1 gusting 13 32.2
2020-Aug-14 10:00 065 32.2
2020-Aug-14 09:45 339 1 gusting 10 32.2
2020-Aug-14 09:30 275 31.7
2020-Aug-14 09:15 051 31.7
2020-Aug-14 09:00 059 0 gusting 5 31.7
2020-Aug-14 08:46 336 0 gusting 9 31.1
2020-Aug-14 08:31 346 31.1
2020-Aug-14 08:17 360 31.1
2020-Aug-14 08:01 005 0 gusting 9 30.6
2020-Aug-14 07:46 096 0 gusting 8 30.6
2020-Aug-14 07:32 355 30.6
2020-Aug-14 07:15 348 30.0
2020-Aug-14 07:00 011 30.0
2020-Aug-14 06:45 317 30.0
2020-Aug-14 06:30 345 30.0
2020-Aug-14 06:15 005 30.0
2020-Aug-14 06:00 331 30.0
2020-Aug-14 05:45 070 28.9
2020-Aug-14 05:30 087 28.9
2020-Aug-14 05:15 046 27.8
2020-Aug-14 05:01 046 27.2
2020-Aug-14 04:47 046 26.1
2020-Aug-14 04:31 045 25.6
2020-Aug-14 04:16 045 25.0
2020-Aug-14 04:01 045 25.6
2020-Aug-14 03:46 045 25.6
2020-Aug-14 03:31 045 25.6
2020-Aug-14 03:15 047 25.6
2020-Aug-14 02:46 360 25.6
2020-Aug-14 02:31 332 25.6
2020-Aug-14 02:15 314 25.6
2020-Aug-14 02:01 348 25.6
2020-Aug-14 01:46 333 25.6
2020-Aug-14 01:30 333 25.6
2020-Aug-14 01:16 333 25.6
2020-Aug-14 01:00 355 25.6
2020-Aug-14 00:45 336 25.6
2020-Aug-14 00:16 336 25.6
2020-Aug-14 00:01 336 25.6
2020-Aug-13 23:01 093 25.6
2020-Aug-13 22:45 095 25.6
2020-Aug-13 22:30 095 25.6
2020-Aug-13 22:15 095 25.6
2020-Aug-13 22:01 096 25.6
2020-Aug-13 21:45 096 26.1
2020-Aug-13 21:31 096 26.1
2020-Aug-13 21:15 096 26.7
2020-Aug-13 21:00 096 26.7
2020-Aug-13 20:45 096 26.7
2020-Aug-13 20:30 094 26.7
2020-Aug-13 20:15 094 27.2
2020-Aug-13 20:00 094 27.8
2020-Aug-13 19:45 094 27.8
2020-Aug-13 19:30 094 27.8
2020-Aug-13 19:15 094 28.3
2020-Aug-13 19:00 094 28.3